Time,TemperatureF,DewpointF,PressureIn,WindDirection,WindDirectionDegrees,WindSpeedMPH,WindSpeedGustMPH,Humidity,HourlyPrecipIn,Conditions,Clouds,dailyrainin,SoftwareType,DateUTC
2014-02-10 00:12:00,36.0,34.0,29.80,NNE,14,2.0,8.0,93,0.00,,,0.00,,2014-02-10 06:12:00,
2014-02-10 00:22:00,36.0,34.0,29.80,NNW,330,3.0,11.0,93,0.00,,,0.00,,2014-02-10 06:22:00,
2014-02-10 00:42:00,36.0,34.0,29.80,NNW,329,4.0,12.0,93,0.00,,,0.00,,2014-02-10 06:42:00,
2014-02-10 00:52:00,36.0,34.0,29.80,NNW,329,1.0,7.0,93,0.00,,,0.00,,2014-02-10 06:52:00,
2014-02-10 01:12:00,36.0,34.0,29.81,North,5,4.0,10.0,93,0.00,,,0.00,,2014-02-10 07:12:00,
2014-02-10 01:21:00,36.0,34.0,29.81,NNW,327,2.0,11.0,93,0.00,,,0.00,,2014-02-10 07:21:00,
2014-02-10 01:32:00,36.0,34.0,29.81,NNW,327,2.0,11.0,93,0.00,,,0.00,,2014-02-10 07:32:00,
2014-02-10 01:42:00,36.0,34.0,29.81,NNW,327,2.0,11.0,93,0.00,,,0.00,,2014-02-10 07:42:00,
2014-02-10 01:52:00,36.0,34.0,29.80,NNE,18,2.0,8.0,93,0.00,,,0.00,,2014-02-10 07:52:00,
2014-02-10 02:12:00,36.0,34.0,29.80,NNW,335,3.0,9.0,94,0.00,,,0.00,,2014-02-10 08:12:00,
2014-02-10 02:22:00,36.0,34.0,29.81,ENE,65,2.0,9.0,94,0.00,,,0.00,,2014-02-10 08:22:00,
2014-02-10 02:42:00,35.0,33.0,29.82,WNW,301,4.0,9.0,94,0.00,,,0.00,,2014-02-10 08:42:00,
2014-02-10 02:52:00,35.0,33.0,29.83,NW,313,3.0,9.0,94,0.00,,,0.00,,2014-02-10 08:52:00,
2014-02-10 03:12:00,35.0,33.0,29.84,NW,319,3.0,13.0,94,0.00,,,0.00,,2014-02-10 09:12:00,
2014-02-10 03:21:00,35.0,33.0,29.84,NW,321,3.0,12.0,94,0.01,,,0.01,,2014-02-10 09:21:00,
2014-02-10 03:43:00,35.0,33.0,29.83,NW,313,3.0,12.0,94,0.01,,,0.01,,2014-02-10 09:43:00,
2014-02-10 03:53:00,35.0,33.0,29.83,NW,326,5.0,12.0,94,0.01,,,0.01,,2014-02-10 09:53:00,
2014-02-10 04:03:00,35.0,33.0,29.83,NW,326,5.0,12.0,94,0.01,,,0.01,,2014-02-10 10:03:00,
2014-02-10 04:13:00,35.0,33.0,29.83,NW,326,5.0,12.0,94,0.01,,,0.01,,2014-02-10 10:13:00,
2014-02-10 04:23:00,35.0,33.0,29.84,North,5,3.0,12.0,94,0.00,,,0.01,,2014-02-10 10:23:00,
2014-02-10 04:43:00,35.0,33.0,29.85,NNW,340,4.0,11.0,94,0.00,,,0.01,,2014-02-10 10:43:00,
2014-02-10 04:53:00,34.0,32.0,29.84,NNW,329,6.0,12.0,94,0.00,,,0.01,,2014-02-10 10:53:00,
2014-02-10 05:12:00,35.0,33.0,29.84,NNW,331,3.0,9.0,94,0.00,,,0.01,,2014-02-10 11:12:00,
2014-02-10 05:22:00,34.0,32.0,29.84,NNW,329,3.0,14.0,94,0.00,,,0.01,,2014-02-10 11:22:00,
2014-02-10 05:42:00,34.0,32.0,29.85,NNE,22,4.0,11.0,94,0.00,,,0.01,,2014-02-10 11:42:00,
2014-02-10 05:52:00,34.0,32.0,29.85,WNW,293,5.0,13.0,94,0.00,,,0.01,,2014-02-10 11:52:00,
2014-02-10 06:12:00,34.0,32.0,29.87,NNW,328,5.0,11.0,94,0.00,,,0.01,,2014-02-10 12:12:00,
2014-02-10 06:22:00,34.0,32.0,29.87,NW,322,5.0,15.0,94,0.00,,,0.01,,2014-02-10 12:22:00,
2014-02-10 06:42:00,34.0,32.0,29.87,NNE,32,4.0,14.0,94,0.00,,,0.01,,2014-02-10 12:42:00,
2014-02-10 06:52:00,34.0,32.0,29.87,NNW,340,5.0,12.0,94,0.00,,,0.01,,2014-02-10 12:52:00,
2014-02-10 07:11:00,33.0,31.0,29.88,NW,325,6.0,13.0,94,0.00,,,0.01,,2014-02-10 13:11:00,
2014-02-10 07:21:00,33.0,31.0,29.89,NNE,16,7.0,13.0,94,0.00,,,0.01,,2014-02-10 13:21:00,
2014-02-10 07:42:00,33.0,31.0,29.89,North,350,3.0,12.0,93,0.00,,,0.01,,2014-02-10 13:42:00,
2014-02-10 07:52:00,33.0,31.0,29.90,NNW,342,5.0,12.0,93,0.00,,,0.01,,2014-02-10 13:52:00,
2014-02-10 08:12:00,33.0,31.0,29.90,North,5,2.0,10.0,93,0.00,,,0.01,,2014-02-10 14:12:00,
2014-02-10 08:22:00,33.0,31.0,29.90,NNW,344,4.0,12.0,93,0.00,,,0.01,,2014-02-10 14:22:00,
2014-02-10 08:42:00,33.0,31.0,29.91,NNW,338,5.0,14.0,93,0.00,,,0.01,,2014-02-10 14:42:00,
2014-02-10 08:52:00,33.0,31.0,29.92,NNW,338,2.0,10.0,93,0.00,,,0.01,,2014-02-10 14:52:00,
2014-02-10 09:11:00,33.0,31.0,29.92,NNW,329,2.0,11.0,93,0.00,,,0.01,,2014-02-10 15:11:00,
2014-02-10 09:22:00,33.0,31.0,29.92,NNW,344,4.0,13.0,93,0.00,,,0.01,,2014-02-10 15:22:00,
2014-02-10 09:43:00,33.0,31.0,29.93,NW,309,4.0,10.0,93,0.00,,,0.01,,2014-02-10 15:43:00,
2014-02-10 09:53:00,33.0,31.0,29.94,NW,323,6.0,11.0,93,0.00,,,0.01,,2014-02-10 15:53:00,
2014-02-10 10:13:00,33.0,31.0,29.94,North,351,2.0,12.0,93,0.00,,,0.01,,2014-02-10 16:13:00,
2014-02-10 10:24:00,33.0,31.0,29.94,NNW,329,2.0,10.0,93,0.00,,,0.01,,2014-02-10 16:24:00,
2014-02-10 10:43:00,33.0,31.0,29.95,NW,325,4.0,11.0,93,0.00,,,0.01,,2014-02-10 16:43:00,
2014-02-10 10:52:00,33.0,31.0,29.95,NW,325,4.0,13.0,93,0.00,,,0.01,,2014-02-10 16:52:00,
2014-02-10 11:12:00,33.0,31.0,29.95,NNE,13,3.0,12.0,93,0.00,,,0.01,,2014-02-10 17:12:00,
2014-02-10 11:23:00,33.0,31.0,29.95,NW,321,2.0,12.0,93,0.00,,,0.01,,2014-02-10 17:23:00,
2014-02-10 11:43:00,33.0,31.0,29.95,NW,323,4.0,10.0,93,0.00,,,0.01,,2014-02-10 17:43:00,
2014-02-10 11:53:00,33.0,31.0,29.95,NW,325,5.0,9.0,93,0.00,,,0.01,,2014-02-10 17:53:00,
2014-02-10 12:12:00,32.0,30.0,29.95,NNE,16,5.0,10.0,93,0.00,,,0.01,,2014-02-10 18:12:00,
2014-02-10 12:22:00,32.0,30.0,29.94,NNW,340,4.0,11.0,93,0.00,,,0.01,,2014-02-10 18:22:00,
2014-02-10 12:43:00,32.0,30.0,29.93,North,355,4.0,11.0,93,0.00,,,0.01,,2014-02-10 18:43:00,
2014-02-10 12:52:00,32.0,30.0,29.93,NE,46,3.0,10.0,93,0.00,,,0.01,,2014-02-10 18:52:00,
2014-02-10 13:11:00,32.0,30.0,29.93,North,9,4.0,9.0,93,0.00,,,0.01,,2014-02-10 19:11:00,
2014-02-10 13:22:00,32.0,30.0,29.91,WNW,302,2.0,11.0,94,0.00,,,0.01,,2014-02-10 19:22:00,
2014-02-10 13:42:00,32.0,30.0,29.91,NNW,344,4.0,9.0,93,0.00,,,0.01,,2014-02-10 19:42:00,
2014-02-10 13:52:00,32.0,30.0,29.90,NNW,331,4.0,8.0,93,0.00,,,0.01,,2014-02-10 19:52:00,
2014-02-10 14:01:00,32.0,30.0,29.90,NNW,331,4.0,8.0,93,0.00,,,0.01,,2014-02-10 20:01:00,
2014-02-10 14:11:00,32.0,30.0,29.90,NNW,331,4.0,8.0,93,0.00,,,0.01,,2014-02-10 20:11:00,
2014-02-10 14:22:00,32.0,30.0,29.89,NNW,331,5.0,13.0,93,0.00,,,0.01,,2014-02-10 20:22:00,
2014-02-10 14:42:00,32.0,30.0,29.89,NW,325,4.0,11.0,93,0.00,,,0.01,,2014-02-10 20:42:00,
2014-02-10 14:52:00,32.0,30.0,29.89,North,355,2.0,12.0,93,0.00,,,0.01,,2014-02-10 20:52:00,
2014-02-10 15:11:00,31.0,29.0,29.89,NW,317,3.0,9.0,93,0.00,,,0.01,,2014-02-10 21:11:00,
2014-02-10 15:22:00,31.0,29.0,29.88,North,350,2.0,9.0,93,0.00,,,0.01,,2014-02-10 21:22:00,
2014-02-10 15:43:00,31.0,29.0,29.88,NW,323,4.0,14.0,93,0.00,,,0.01,,2014-02-10 21:43:00,
2014-02-10 15:53:00,31.0,29.0,29.88,NNW,341,5.0,10.0,93,0.00,,,0.01,,2014-02-10 21:53:00,
2014-02-10 16:13:00,31.0,29.0,29.87,NNW,347,5.0,10.0,93,0.00,,,0.01,,2014-02-10 22:13:00,
2014-02-10 16:23:00,31.0,29.0,29.88,WNW,298,5.0,11.0,93,0.00,,,0.01,,2014-02-10 22:23:00,
2014-02-10 16:43:00,31.0,29.0,29.88,NW,321,5.0,9.0,93,0.00,,,0.01,,2014-02-10 22:43:00,
2014-02-10 16:53:00,31.0,29.0,29.89,NW,316,2.0,8.0,93,0.00,,,0.01,,2014-02-10 22:53:00,
2014-02-10 17:22:00,31.0,29.0,29.89,NNW,345,2.0,7.0,93,0.00,,,0.01,,2014-02-10 23:22:00,
2014-02-10 17:42:00,30.0,28.0,29.88,NNW,347,3.0,11.0,93,0.00,,,0.01,,2014-02-10 23:42:00,
2014-02-10 17:53:00,30.0,28.0,29.89,NW,316,4.0,14.0,93,0.00,,,0.01,,2014-02-10 23:53:00,
2014-02-10 18:11:00,30.0,28.0,29.89,North,355,3.0,10.0,93,0.00,,,0.01,,2014-02-11 00:11:00,
2014-02-10 18:22:00,30.0,28.0,29.89,NW,322,3.0,8.0,93,0.00,,,0.01,,2014-02-11 00:22:00,
2014-02-10 18:42:00,30.0,28.0,29.90,NNW,343,4.0,10.0,93,0.00,,,0.01,,2014-02-11 00:42:00,
2014-02-10 18:52:00,30.0,28.0,29.90,NNW,327,4.0,10.0,93,0.00,,,0.01,,2014-02-11 00:52:00,
2014-02-10 19:11:00,30.0,28.0,29.91,NNW,338,5.0,13.0,93,0.00,,,0.01,,2014-02-11 01:11:00,
2014-02-10 19:22:00,30.0,28.0,29.90,NNW,334,4.0,9.0,93,0.00,,,0.01,,2014-02-11 01:22:00,
2014-02-10 19:42:00,30.0,28.0,29.91,NW,323,3.0,11.0,94,0.00,,,0.01,,2014-02-11 01:42:00,
2014-02-10 19:52:00,30.0,28.0,29.91,NNW,329,4.0,10.0,94,0.00,,,0.01,,2014-02-11 01:52:00,
2014-02-10 20:12:00,29.0,27.0,29.92,NNE,16,4.0,11.0,94,0.00,,,0.01,,2014-02-11 02:12:00,
2014-02-10 20:22:00,29.0,27.0,29.93,NNW,328,5.0,12.0,94,0.00,,,0.01,,2014-02-11 02:22:00,
2014-02-10 20:42:00,29.0,27.0,29.93,NW,313,4.0,8.0,94,0.00,,,0.01,,2014-02-11 02:42:00,
2014-02-10 20:53:00,30.0,28.0,29.93,NW,313,3.0,11.0,94,0.00,,,0.01,,2014-02-11 02:53:00,
2014-02-10 21:11:00,29.0,27.0,29.94,NNW,338,3.0,14.0,94,0.00,,,0.01,,2014-02-11 03:11:00,
2014-02-10 21:22:00,29.0,27.0,29.94,North,355,4.0,12.0,94,0.00,,,0.01,,2014-02-11 03:22:00,
2014-02-10 21:43:00,29.0,27.0,29.94,NW,319,3.0,10.0,94,0.00,,,0.01,,2014-02-11 03:43:00,
2014-02-10 21:53:00,29.0,27.0,29.94,NNW,336,3.0,9.0,94,0.00,,,0.01,,2014-02-11 03:53:00,
2014-02-10 22:24:00,29.0,27.0,29.95,NNW,346,2.0,8.0,94,0.00,,,0.01,,2014-02-11 04:24:00,
2014-02-10 22:42:00,29.0,27.0,29.95,WNW,298,3.0,10.0,94,0.00,,,0.01,,2014-02-11 04:42:00,
2014-02-10 22:53:00,29.0,27.0,29.95,NNW,329,4.0,11.0,94,0.00,,,0.01,,2014-02-11 04:53:00,
2014-02-10 23:12:00,29.0,27.0,29.94,NW,319,2.0,10.0,94,0.00,,,0.01,,2014-02-11 05:12:00,
2014-02-10 23:22:00,29.0,27.0,29.95,NW,322,4.0,8.0,94,0.00,,,0.01,,2014-02-11 05:22:00,
2014-02-10 23:43:00,29.0,27.0,29.95,NNW,340,2.0,9.0,94,0.00,,,0.01,,2014-02-11 05:43:00,
2014-02-10 23:53:00,29.0,27.0,29.95,NNE,27,5.0,10.0,94,0.00,,,0.01,,2014-02-11 05:53:00,